www.pogodaiklimat.ru

Погода и климат >> Архив погоды >> Бангладеш >> Teknaf


ПОГОДА в Teknaf

  • Прогноз погоды в Teknaf
  • Монитор погоды в Teknaf
  • Климат города

АРХИВ ПОГОДЫ в Teknaf

Время (UTC), дата Ветер
(напр.,м/с)
 
Видим.   Явления Облачность Т
(С)
Тd
(С)
f
(%)
Тe
(С)
Тes
(С)
Комфортность P
(гПа)
Po
(гПа)
Тmin
(С)
Tmax
(С)
R
(мм)
R24
(мм)
S
(см)
21 10.10 штиль 0 5000 м слабый дождь 10/4 540 м
[Sc diur, vesp As op]
+26.0 +24.0 89 +36 +36 очень
душно
1009.4 1008.8
00 11.10 штиль 0 5000 м слабый дождь 10/4 540 м
[Sc diur, vesp As op]
+25.8 +25.0 95 +37 +37 очень
душно
1009.6 1009.0 27
03 11.10 штиль 0 6000 м слабый дождь 10/4 540 м
[Sc diur, vesp As op]
+27.2 +25.0 88 +39 +41 очень
душно
1010.2 1009.4 +24.7 7
06 11.10 СЗ 2 6000 м слабый дождь 10/4 540 м
[Sc diur, vesp As op]
+24.0 +24.0 100 +33 +35 очень
душно
1010.0 1009.4 44
06 12.10 С 3 6000 м слабый дождь 10/4 540 м
[Sc diur, vesp As op]
+25.0 +25.0 100 +36 +37 очень
душно
1012.1 1011.5 10
03 13.10 штиль 0 6000 м слабый дождь 10/4 540 м
[Sc diur, vesp As op]
+25.2 +25.0 99 +36 +37 очень
душно
1012.8 1012.2 +23.8 10
12 14.10 штиль 0 6000 м 10/4 540 м
[Sc diur, vesp As op]
+25.2 +24.0 93 +35 +35 очень
душно
1010.0 1009.4 +28.1
15 14.10 штиль 0 5000 м 10/4 540 м
[Sc diur, vesp As op]
+25.0 +23.0 89 +33 +33 очень
душно
1010.2 1009.8
18 14.10 штиль 0 5000 м 10/4 540 м
[Sc diur, vesp As op]
+24.7 +23.0 90 +33 +33 очень
душно
1010.7 1010.1
21 14.10 штиль 0 5000 м 10/4 540 м
[Sc diur, vesp As op]
+25.0 +24.0 94 +34 +34 очень
душно
1011.0 1010.4
00 15.10 штиль 0 5000 м 8/3 540 м
[Sc diur, vesp As op]
+25.2 +25.0 99 +36 +36 очень
душно
1011.7 1011.1
03 15.10 штиль 0 6000 м 8/3 540 м
[Sc diur, vesp As op]
+29.0 +24.0 74 +40 +43 очень
душно
1012.9 1012.3 +23.7
06 15.10 ЮВ 1 6000 м 5/3 540 м
[Sc diur, vesp As op]
+31.6 +25.0 68 +45 +55 опасность
перегрева
1012.7 1012.1
12 15.10 штиль 0 6000 м 5/3 540 м
[Sc diur, vesp As op]
+27.8 +25.0 85 +40 +40 очень
душно
1011.1 1010.5 +32.2
15 15.10 штиль 0 5000 м ясно +27.0 +25.0 89 +39 +39 очень
душно
1011.5 1010.9
18 15.10 штиль 0 5000 м ясно +26.5 +24.0 86 +37 +37 очень
душно
1011.4 1010.7
21 15.10 штиль 0 5000 м ясно +26.0 +24.0 89 +36 +36 очень
душно
1011.8 1011.2
00 16.10 штиль 0 5000 м ясно +25.7 +24.0 90 +35 +35 очень
душно
1011.4 1010.8
03 16.10 штиль 0 6000 м ясно +29.5 +27.0 86 +46 +57 опасность
перегрева
1012.6 1012.0 +24.0
09 16.10 Ю 2 6000 м ясно +30.8 +23.0 63 +41 +48 опасность
перегрева
1010.0 1009.4
12 16.10 ЮВ 1 6000 м ясно +25.9 +25.0 95 +37 +37 очень
душно
1010.8 1010.2 +31.6
15 16.10 штиль 0 5000 м ясно +25.0 +24.0 94 +34 +34 очень
душно
1010.8 1010.2
21 16.10 штиль 0 5000 м ясно +24.8 +23.0 90 +33 +33 очень
душно
1010.4 1009.8
00 17.10 штиль 0 5000 м ясно +25.2 +24.0 93 +35 +35 очень
душно
1010.7 1010.1
03 17.10 штиль 0 6000 м ясно +28.5 +21.0 64 +36 +47 очень
душно
1011.9 1011.3 +24.2
09 17.10 Ю 3 6000 м ясно +30.2 +21.0 58 +38 +44 очень
душно
1008.5 1007.9
12 17.10 штиль 0 6000 м ясно +25.4 +22.0 81 +33 +33 очень
душно
1008.8 1008.2 +31.5
15 17.10 штиль 0 5000 м ясно +25.0 +22.0 83 +32 +32 очень
душно
1009.7 1009.1

 

Местоположение метеостанции Teknaf (Бангладеш): широта 20.87 долгота 92.30 высота над уровнем моря 6 м.

В архиве по умолчанию представлена погода в Teknaf за последнюю неделю. Архивные данные за месяц целиком и за предыдущие месяцы, начиная с января 2011 года, Вы можете получить, выбрав интересующий диапазон дат из раскрывающегося списка и нажав кнопку "Ввод!".


*Определитесь, кто Вы:
робот инопланетянин человек

Внимание! Время в таблицах - всемирное. Для получения местного времени необходимо прибавить поправку, которая в Teknaf равна 6.5 ч.

Смотрите также архив погоды в соседних городах и на ближайших метеорологических станциях:

Погода в Kyauktaw (Мьянма) (34 км)
Погода в Coxs Bazar (Бангладеш) (73 км)
Погода в Sittwe (Мьянма) (102 км)
Погода в Kutubdia (Бангладеш) (115 км)
Погода в Chittagong (Бангладеш) (163 км)
Погода в Mindat (Мьянма) (180 км)
Погода в Rangamati (Бангладеш) (185 км)
Погода в Sitakundu (Бангладеш) (200 км)
Погода в Sandwip (Бангладеш) (200 км)
Погода в Kyaukpyu (Мьянма) (207 км)

Пояснения к столбцам:

Ветер - указаны скорость ветра в м/с - средняя за 10 мин, порывы в срок и между сроками (в фигурных скобках) и направление, откуда дует ветер: С - северный, СВ - северо-восточный, В - восточный, ЮВ - юго-восточный, Ю - южный, ЮЗ - юго-западный, З - западный, СЗ - северо-западный.
Видимость - горизонтальная дальность видимости в метрах или километрах. При видимости от 1 до 10 км при отсутствии осадков обычно наблюдается дымка, при ухудшении видимости до 1 км и менее - туман. В сухую погоду видимость может ухудшаться дымом, пылью или мглою.
Явления - указаны атмосферные явления, наблюдавшиеся в срок или в последний час перед сроком; фигурными скобками обозначены явления, наблюдавшиеся между сроками (за 1-3 часа до срока); квадратными скобками обозначены град или гололедные отложения с указанием их диаметра в мм.
Облачность - указаны через наклонную черту общая и нижняя облачность в баллах и высота нижней границы облаков в метрах; квадратными скобками обозначены формы облаков: Ci - перистые, Cs - перисто-слоистые, Cc - перисто-кучевые, Ac - высококучевые, As - высокослоистые, Sc - слоисто-кучевые, Ns - слоисто-дождевые, Cu - кучевые, Cb - кучево-дождевые. Подробнее классификацию облаков см. в Атласе облаков (PDF).
T - Температура воздуха - температура, измеренная на высоте 2 м над землей.
Td - Температура точки росы - температура, при понижении до которой содержащийся в воздухе водяной пар достигнет насыщения.
f - Относительная влажность воздуха - влажноcть воздуха, измеренная на высоте 2 м над землей.
Te - Эффективная температура - температура, которую ощущает одетый по сезону человек в тени. Характеристика душности погоды. При расчете учитывается влияние влажности воздуха и скорости ветра на теплоощущения человека.
Tes - Эффективная температура на солнце - температура, которую ощущает человек, с поправкой на солнечный нагрев. Характеристика знойности погоды. Зависит от высоты солнца над горизонтом, облачности и скорости ветра. Ночью, в пасмурную погоду, а также при ветре 12 м/с и более поправка равна нулю.
P - Атмосферное давление - приведенное к уровню моря атмосферное давление.
Po - Атмосферное давление - измеренное на уровне метеостанции атмосферное давление.
Tmin - Минимальная температура - минимум температуры воздуха на высоте 2 м над землей.
Tmax - Максимальная температура - максимум температуры воздуха на высоте 2 м над землей.
R - Количество осадков - Количество выпавших осадков за период времени, мм. При наведении курсора мыши на число - период времени, за который выпало указанное количество осадков.
R24 - Количество осадков - Количество выпавших осадков за 24 часа, мм.
S - Снежный покров - Высота снежного покрова, см. При наведении курсора мыши на число - состояние снежного покрова и степень покрытия местности в баллах.